This is the latest recevied weather packets stored in our database for station/object SP1BMW-13. If no packets are shown the sender has not sent any weather packets the latest 1 day(s).
| Time | Temp. | Humidity | Pressure | Rain* | Wind** | Luminosity | Snow |
|---|---|---|---|---|---|---|---|
| 1778037773 | 10° C | 94% | 1005.6 hPa | 0.76 mm | 0 m/s | 0 W/m² | - |
| 1778037710 | 10° C | 94% | 1005.6 hPa | 0.76 mm | 0.89 m/s, 41° | 0 W/m² | - |
| 1778037590 | 10° C | 94% | 1005.6 hPa | 0.76 mm | 0.89 m/s, 301° | 0 W/m² | - |
| 1778037530 | 10° C | 94% | 1005.7 hPa | 0.76 mm | 0 m/s | 0 W/m² | - |
| 1778037470 | 10° C | 94% | 1005.7 hPa | 0.76 mm | 0.45 m/s, 2° | 0 W/m² | - |
| 1778037413 | 10° C | 94% | 1005.8 hPa | 0.76 mm | 0.89 m/s, 41° | 0 W/m² | - |
| 1778037290 | 10° C | 94% | 1005.5 hPa | 0.51 mm | 0.89 m/s, 43° | 0 W/m² | - |
| 1778037170 | 10° C | 94% | 1005.7 hPa | 0.51 mm | 0.89 m/s, 73° | 0 W/m² | - |
| 1778037110 | 10° C | 94% | 1005.6 hPa | 0.51 mm | 1.34 m/s, 53° | 0 W/m² | - |
| 1778036993 | 10° C | 94% | 1005.7 hPa | 0.51 mm | 0 m/s | 0 W/m² | - |
| 1778036930 | 10° C | 94% | 1005.8 hPa | 0.51 mm | 0.45 m/s, 61° | 0 W/m² | - |
| 1778036870 | 10° C | 94% | 1005.9 hPa | 0.51 mm | 0 m/s | 0 W/m² | - |
| 1778036810 | 10° C | 94% | 1005.9 hPa | 0.51 mm | 0.45 m/s, 38° | 0 W/m² | - |
| 1778036750 | 10° C | 94% | 1006 hPa | 0.51 mm | 0.45 m/s, 30° | 0 W/m² | - |
| 1778036629 | 10° C | 94% | 1005.9 hPa | 0.51 mm | 1.34 m/s, 60° | 0 W/m² | - |
| 1778036449 | 10° C | 94% | 1006 hPa | 0.51 mm | 1.34 m/s, 33° | 0 W/m² | - |
| 1778036389 | 10° C | 94% | 1006 hPa | 0.51 mm | 0 m/s | 0 W/m² | - |
| 1778036332 | 10° C | 94% | 1006 hPa | 0.51 mm | 0 m/s | 0 W/m² | - |
| 1778036273 | 10° C | 94% | 1005.9 hPa | 0.51 mm | 0 m/s | 0 W/m² | - |
| 1778036209 | 10° C | 94% | 1006 hPa | 0.51 mm | 1.34 m/s, 46° | 0 W/m² | - |
| 1778036153 | 10° C | 94% | 1006 hPa | 0.25 mm | 0.45 m/s, 25° | 0 W/m² | - |
| 1778036030 | 10° C | 94% | 1006 hPa | 0.25 mm | 2.24 m/s, 37° | 0 W/m² | - |
| 1778035969 | 10° C | 94% | 1006.1 hPa | 0.25 mm | 0.45 m/s, 23° | 0 W/m² | - |
| 1778035909 | 10° C | 94% | 1006.1 hPa | 0.25 mm | 0.45 m/s, 57° | 0 W/m² | - |
| 1778035850 | 10° C | 94% | 1006.2 hPa | 0.25 mm | 0.89 m/s, 36° | 0 W/m² | - |
* Rain latest hour (hover to see other rain measurements)
** Current wind speed in m/s (hover to see current wind gust speed)